Location: Newark
(43.0000°N, 1.6781°W)
Time: 04:41:07
(UTC+00:00)

Explorer 7 - Pass Details

Date: 28 April 2021
Orbit: 484 x 677 km, 50.3° (Epoch: 07 May)

Event Time Altitude Azimuth Distance (km) Brightness Sun altitude
Rises 00:25:25 0° 288° (WNW) 2,797 - -32.6°
Reaches altitude 10° 00:28:16 10° 269° (W) 1,934 - -32.6°
Maximum altitude 00:31:12 17° 227° (SW) 1,541 - -32.5°
Drops below altitude 10° 00:34:13 10° 186° (S) 2,004 - -32.4°
Sets 00:37:15 0° 167° (SSE) 2,942 - -32.3°
